Home > Time Zones > World Clock > Weather > Russia > Ufa > Past weeks

Flag for Russia Weather past 2 weeks in Ufa, Russia

Now
12 °F

Clear.


Feels Like: 3 °F
Forecast: 11 / 23 °F
Wind: 6 mph from Southwest

Location: Ufa

Current Time: Mar 6, 2015 at 11:34:16 PM

Latest Report: Mar 6, 2015 at 11:00 PM


Visibility: 10 mi

Pressure: 30.36 "Hg

Humidity: 79%

Dew point: 7 °F

Location of UfaLocation

Historic Weather in Ufa — Graph

°F

Ufa temperature yesterday

Maximum temperature yesterday: 27 °F (at 4:00 PM)
Minimum temperature yesterday: 0 °F (at 7:00 AM)
Average temperature yesterday: 13 °F

Past Weeks' High & Low Weather Summary

 TemperatureHumidityPressure
High32 °F (Feb 24, 3:30 PM)100% (Feb 21, 11:00 PM)30.74 "Hg (Feb 21, 11:00 PM)
Low-2 °F (Mar 3, 8:30 AM)54% (Mar 5, 7:00 PM)29.89 "Hg (Feb 20, 6:00 AM)
Average17 °F82%30.35 "Hg
* Reported Feb 19 10:00 PM — Mar 6 10:30 PM, Ufa, Weather by CustomWeather, © 2015

Note: Actual official high and low records may vary slightly from our data, if they occured in-between our weather recording intervals... More about our weather records

Advertising

Ufa weather history for previous 24 hours

 ConditionsComfort  
Time TempWeatherWind HumidityBarometerVisibility
10:30 PM
Fri, Mar 6
14 °FClear.3 mph79%30.36 "Hg10 mi
10:00 PM14 °FClear.3 mph73%30.36 "Hg10 mi
9:30 PM16 °FClear.3 mph73%30.33 "Hg10 mi
9:00 PM19 °FSunny.6 mph68%30.33 "Hg10 mi
8:30 PM21 °FPassing clouds.3 mph63%30.33 "HgN/A
8:00 PM23 °FPassing clouds.3 mph63%30.33 "HgN/A
7:30 PM23 °FSunny.3 mph63%30.33 "Hg10 mi
7:00 PM21 °FSunny.3 mph68%30.33 "Hg10 mi
6:30 PM23 °FPassing clouds.3 mph63%30.33 "HgN/A
6:00 PM27 °FPassing clouds.3 mph59%30.33 "HgN/A
5:30 PM27 °FPassing clouds.3 mph59%30.33 "HgN/A
5:00 PM27 °FSunny.3 mph64%30.33 "Hg10 mi
4:30 PM27 °FSunny.6 mph69%30.33 "Hg10 mi
4:00 PM27 °FPassing clouds.3 mph59%30.33 "HgN/A
3:30 PM27 °FSunny.1 mph59%30.33 "Hg10 mi
3:00 PM27 °FPassing clouds.3 mph54%30.33 "HgN/A
2:30 PM27 °FSunny.3 mph54%30.33 "Hg10 mi
2:00 PM25 °FSunny.1 mph63%30.33 "Hg10 mi
1:30 PM25 °FIce fog.No wind59%30.33 "Hg2 mi
1:00 PM21 °FIce fog.1 mph68%30.33 "Hg2 mi
12:30 PM21 °FIce fog.No wind68%30.33 "Hg2 mi
12:00 PM19 °FIce fog.No wind68%30.33 "Hg2 mi
11:30 AM16 °FIce fog.1 mph73%30.33 "Hg2 mi
11:00 AM12 °FIce fog.1 mph79%30.33 "Hg2 mi
10:30 AM12 °FIce fog.No wind79%30.33 "Hg2 mi
10:00 AM10 °FIce fog.1 mph79%30.33 "Hg2 mi
9:30 AM7 °FIce fog.No wind85%30.36 "Hg2 mi
9:00 AM5 °FIce fog.No wind85%30.33 "Hg2 mi
8:30 AM3 °FIce fog.1 mph92%30.33 "Hg2 mi
8:00 AM3 °FIce fog.No wind92%30.33 "Hg2 mi
7:30 AM5 °FIce fog.No wind85%30.33 "Hg2 mi
7:00 AM3 °FIce fog.No wind92%30.33 "Hg3 mi
6:30 AM7 °FClear.No wind85%30.33 "Hg10 mi
6:00 AM7 °FClear.1 mph85%30.33 "Hg10 mi
5:30 AM7 °FClear.No wind85%30.30 "Hg10 mi
5:00 AM9 °FClear.6 mph85%30.30 "Hg10 mi
4:30 AM9 °FClear.No wind85%30.30 "Hg10 mi
4:00 AM7 °FClear.1 mph85%30.30 "Hg10 mi
3:30 AM9 °FClear.No wind85%30.30 "Hg10 mi
3:00 AM10 °FClear.1 mph85%30.30 "Hg10 mi
2:30 AM10 °FClear.3 mph79%30.27 "Hg10 mi
1:30 AM10 °FClear.6 mph79%30.27 "Hg10 mi
1:00 AM12 °FClear.8 mph79%30.27 "Hg10 mi
12:30 AM12 °FClear.6 mph79%30.27 "Hg10 mi
12:00 AM12 °FClear.6 mph79%30.24 "Hg10 mi
11:30 PM
Thu, Mar 5
16 °FPassing clouds.3 mph73%30.24 "HgN/A
11:00 PM12 °FClear.6 mph79%30.24 "Hg10 mi
Weather by CustomWeather, © 2015

See weather overviewHow to use our weather pages